West Columbia, SC

1:45 PM EST on February 25, 2017 (GMT -0500)
Columbia Metro

Weather History for KCAE - May, 2013

Change the Weather History Date:

Sunday, May 19, 2013

  Actual Average Record
Temperature  
Mean Temperature 76 °F 72 °F  
Max Temperature 83 °F 85 °F 98 °F (1996)
Min Temperature 68 °F 61 °F 42 °F (1973)
Degree Days  
Heating Degree Days 0 0  
Month to date heating degree days 18 18  
Since 1 July heating degree days 2259 2549  
Cooling Degree Days 11 8  
Month to date cooling degree days 93 111  
Year to date cooling degree days 221 206  
Growing Degree Days 25 (Base 50)    
Moisture  
Dew Point 68 °F    
Average Humidity 78    
Maximum Humidity 97    
Minimum Humidity 58    
Precipitation  
Precipitation 0.76 in 0.09 in 1.30 in (1969)
Month to date precipitation 3.62 1.73  
Year to date precipitation 18.62 15.27  
Sea Level Pressure  
Sea Level Pressure 30.07 in    
Wind  
Wind Speed 5 mph (ESE)    
Max Wind Speed 30 mph    
Max Gust Speed 33 mph    
Visibility 7 miles    
Events Fog , Rain , Thunderstorm    
T = Trace of Precipitation, MM = Missing Value Source: NWS Daily Summary

Daily Weather History Graph

Daily Weather History Graph

Search for Another Location

Airport or City:

Trip Planner

Search our weather history database for the weather conditions in past years. The results will help you decide how hot, cold, wet, or windy it might be!

Date:

Astronomy

May. 19, 2013 Rise Set
Actual Time 6:20 AM EDT 8:22 PM EDT
Civil Twilight 5:52 AM EDT 8:49 PM EDT
Nautical Twilight 5:18 AM EDT 9:24 PM EDT
Astronomical Twilight 4:42 AM EDT 10:00 PM EDT
Moon 2:40 PM EDT (5/19) 2:26 AM EDT (5/19)
Length of Visible Light 14h 57m
Length of Day
14h 01m
Waxing Gibbous, 65% of the Moon is Illuminated
May 19
Waxing Gibbous
May 25
Full
May 31
Last Quarter
Jun 8
New
Jun 16
First Quarter

Hourly Weather History & Observations

Time (EDT) Temp. Heat Index Dew Point Humidity Pressure Visibility Wind Dir Wind Speed Gust Speed Precip Events Conditions
12:56 AM 69.1 °F - 66.9 °F 93% 30.09 in 9.0 mi ESE 4.6 mph - N/A   Overcast
1:56 AM 68.0 °F - 66.9 °F 96% 30.09 in 8.0 mi Calm Calm - N/A   Mostly Cloudy
2:56 AM 68.0 °F - 66.0 °F 93% 30.08 in 9.0 mi Calm Calm - N/A   Overcast
3:56 AM 68.0 °F - 66.0 °F 93% 30.07 in 5.0 mi Calm Calm - 0.01 in Rain Light Rain
4:56 AM 68.0 °F - 66.9 °F 96% 30.07 in 7.0 mi Calm Calm - 0.18 in Rain Light Rain
5:56 AM 68.0 °F - 68.0 °F 100% 30.08 in 6.0 mi SE 3.5 mph - 0.00 in Rain Light Rain
6:56 AM 69.1 °F - 68.0 °F 96% 30.10 in 6.0 mi ENE 4.6 mph - 0.01 in Rain Light Rain
7:56 AM 69.1 °F - 68.0 °F 96% 30.11 in 4.0 mi ESE 3.5 mph - 0.00 in   Overcast
8:13 AM 69.8 °F - 68.0 °F 94% 30.11 in 6.0 mi Calm Calm - N/A   Overcast
8:56 AM 72.0 °F - 69.1 °F 91% 30.11 in 7.0 mi Calm Calm - N/A   Mostly Cloudy
9:56 AM 73.9 °F - 70.0 °F 87% 30.12 in 9.0 mi SW 6.9 mph - N/A   Overcast
10:56 AM 75.9 °F - 69.1 °F 79% 30.10 in 10.0 mi SSW 6.9 mph - N/A   Mostly Cloudy
11:56 AM 77.0 °F - 68.0 °F 74% 30.10 in 10.0 mi WSW 5.8 mph - N/A   Overcast
12:56 PM 77.0 °F - 68.0 °F 74% 30.08 in 10.0 mi Variable 3.5 mph - 0.00 in   Overcast
1:56 PM 78.1 °F - 71.1 °F 79% 30.05 in 10.0 mi WSW 5.8 mph - 0.01 in   Mostly Cloudy
2:56 PM 80.1 °F 82.3 °F 66.9 °F 64% 30.04 in 10.0 mi West 9.2 mph - N/A   Overcast
3:56 PM 81.0 °F 82.7 °F 64.9 °F 58% 30.04 in 10.0 mi WNW 4.6 mph - 0.00 in   Overcast
4:33 PM 71.6 °F - 68.0 °F 88% 30.04 in 10.0 mi East 18.4 mph 25.3 mph N/A   Overcast
4:38 PM 71.6 °F - 69.8 °F 94% 30.04 in 1.8 mi ESE 24.2 mph 28.8 mph 0.01 in Rain Heavy Rain
4:40 PM 71.6 °F - 69.8 °F 94% 30.03 in 0.8 mi East 29.9 mph - 0.06 in Rain Heavy Rain
4:46 PM 69.8 °F - 69.8 °F 100% 30.04 in 0.2 mi East 24.2 mph 32.2 mph 0.43 in Fog , Rain Rain
4:50 PM 69.8 °F - 69.8 °F 100% 30.05 in 0.5 mi East 20.7 mph 28.8 mph N/A Fog , Rain , Thunderstorm Thunderstorms and Rain
4:54 PM 69.8 °F - 69.8 °F 100% 30.05 in 1.0 mi East 17.3 mph 28.8 mph 0.55 in Fog , Rain , Thunderstorm Thunderstorms and Rain
4:56 PM 69.1 °F - 69.1 °F 100% 30.05 in 1.5 mi East 16.1 mph - 0.55 in Thunderstorm Thunderstorm
4:59 PM 69.8 °F - 69.8 °F 100% 30.05 in 3.0 mi East 15.0 mph - N/A Thunderstorm Thunderstorm
5:16 PM 69.8 °F - 68.0 °F 94% 30.07 in 10.0 mi East 8.1 mph - N/A Thunderstorm Thunderstorm
5:54 PM 69.8 °F - 68.0 °F 94% 30.07 in 10.0 mi NE 4.6 mph - N/A Thunderstorm Thunderstorm
5:56 PM 69.1 °F - 66.9 °F 93% 30.06 in 10.0 mi NNE 5.8 mph - N/A Thunderstorm Thunderstorm
6:13 PM 69.8 °F - 68.0 °F 94% 30.06 in 10.0 mi East 6.9 mph - N/A   Overcast
6:44 PM 71.6 °F - 69.8 °F 94% 30.05 in 8.0 mi East 6.9 mph - N/A   Mostly Cloudy
6:56 PM 70.0 °F - 69.1 °F 97% 30.05 in 8.0 mi East 6.9 mph - N/A   Mostly Cloudy
7:56 PM 73.0 °F - 69.1 °F 87% 30.05 in 10.0 mi South 4.6 mph - N/A   Overcast
8:56 PM 71.1 °F - 66.9 °F 87% 30.04 in 10.0 mi SSE 3.5 mph - 0.00 in Rain Light Rain
9:56 PM 70.0 °F - 66.0 °F 87% 30.06 in 10.0 mi SSE 4.6 mph - 0.00 in   Mostly Cloudy
10:56 PM 69.1 °F - 66.9 °F 93% 30.09 in 10.0 mi East 3.5 mph - N/A   Mostly Cloudy
11:35 PM 69.8 °F - 68.0 °F 94% 30.08 in 8.0 mi East 4.6 mph - N/A   Overcast
11:56 PM 69.1 °F - 68.0 °F 96% 30.08 in 8.0 mi ESE 4.6 mph - N/A   Overcast